Regional Weather Roundup
Issued by NWS

Current Version | Previous Version | Text Only | Print | Product List | Glossary On
Versions: 1 2 3 4 5 6 7 8 9 10 11 12 13 14 15 16 17 18 19 20 21 22 23 24 25 26 27 28 29 30 31 32 33 34 35 36 37 38 39 40 41 42 43 44 45 46 47 48 49 50
000
ASUS44 KOUN 270010
RWROK

WEATHER ROUNDUP FOR OKLAHOMA
NATIONAL WEATHER SERVICE NORMAN OK
700 PM CDT MON SEP 26 2016

NOTE: "FAIR" INDICATES FEW OR NO CLOUDS BELOW 12,000 FEET WITH NO
      SIGNIFICANT WEATHER AND/OR OBSTRUCTIONS TO VISIBILITY.

OKZ001>007-009>012-014-015-017-270100-
NORTHWEST OKLAHOMA AND THE PANHANDLE

CITY           SKY/WX    TMP DP  RH WIND       PRES   REMARKS
GAGE           CLEAR     73  37  27 S3        30.22S
6HR MIN TEMP:  71; 6HR MAX TEMP:  80;

GUYMON         CLEAR     74  31  20 S6        30.23F
ENID/WOODRING  PTCLDY    68  48  49 NE6       30.18S
$$

OKZ016-021>023-033>039-044-045-270100-
SOUTHWEST OKLAHOMA

CITY           SKY/WX    TMP DP  RH WIND       PRES   REMARKS
LAWTON/REGL    CLEAR     69  43  38 NE7       30.18R
6HR MIN TEMP:  69; 6HR MAX TEMP:  78;

LAWTON/FT SILL CLEAR     66  45  46 N7        30.17R
FREDERICK      PTCLDY    69  47  45 NE6       30.16S
CLINTON        CLOUDY    67  46  47 NE5       30.23F
HOBART         CLOUDY    66  50  56 NE6       30.21F
ALTUS AFB      CLOUDY    65  50  57 N6        30.19F
$$

OKZ018>020-024>031-270100-
CENTRAL OKLAHOMA

CITY           SKY/WX    TMP DP  RH WIND       PRES   REMARKS
OKLAHOMA CITY  MOCLDY    71  36  27 NE9       30.17F
6HR MIN TEMP:  71; 6HR MAX TEMP:  76;

OKC/WILEY POST PTCLDY    70  40  33 N8        30.17F
OKC/TINKER AFB CLOUDY    69  37  31 NE9       30.16F
STILLWATER     CLEAR     68  46  45 N5        30.17F
GUTHRIE        CLOUDY    69  49  48 NE3       30.17F
$$

OKZ008-013-054>072-270100-
NORTHEAST OKLAHOMA

CITY           SKY/WX    TMP DP  RH WIND       PRES   REMARKS
TULSA          PTCLDY    70  38  31 N7        30.15S
6HR MIN TEMP:  70; 6HR MAX TEMP:  78;

TULSA/JONES    CLEAR     66  44  45 N3        30.15F
PONCA CITY     CLEAR     70  44  39 N5        30.17S
BARTLESVILLE   CLEAR     64  47  53 CALM      30.17F
MUSKOGEE       CLOUDY    70  41  34 N10       30.15S
$$

OKZ032-040>043-046>053-073>077-270100-
SOUTH CENTRAL/SOUTHEAST OKLAHOMA

CITY           SKY/WX    TMP DP  RH WIND       PRES   REMARKS
ARDMORE/DWNTWN CLOUDY    72  45  37 N7        30.14R
MCALESTER      PTCLDY    71  43  36 N7        30.14S
$$





USA.gov is the U.S. government's official web portal to all federal, state and local government web resources and services.